Weather History for Kake, AK

Change the Weather History Date:

Monday, April 8, 2013

  Actual Average Record
Temperature  
Mean Temperature 38 °F -  
Max Temperature 44 °F 43 °F 51 °F (2004)
Min Temperature 33 °F 30 °F 26 °F (1999)
Degree Days  
Heating Degree Days 26    
Moisture  
Dew Point 34 °F    
Average Humidity 78    
Maximum Humidity 87    
Minimum Humidity 66    
Precipitation  
Precipitation 0.11 in - - ()
Sea Level Pressure  
Sea Level Pressure 29.88 in    
Wind  
Wind Speed 10 mph (ESE)    
Max Wind Speed 23 mph    
Max Gust Speed 36 mph    
Visibility 10 miles    
Events      
Averages and records for this station are not official NWS values.
T = Trace of Precipitation, MM = Missing Value Source: NWS Daily Summary

Daily Weather History Graph

Daily Weather History Graph

Search for Another Location

Airport:

Trip Planner

Search our weather history database for the weather conditions in past years. The results will help you decide how hot, cold, wet, or windy it might be!

Date:

Astronomy

Apr. 08, 2013 Rise Set
Actual Time 6:04 AM AKDT 7:51 PM AKDT
Civil Twilight 5:24 AM AKDT 8:31 PM AKDT
Nautical Twilight 4:34 AM AKDT 9:22 PM AKDT
Astronomical Twilight 3:35 AM AKDT 10:21 PM AKDT
Moon 5:15 AM AKDT (4/8) 6:23 PM AKDT (4/8)
Length of Visible Light 15h 06m
Length of Day
13h 46m
Waning Crescent, 3% of the Moon is Illuminated
Apr 8
Waning Crescent
Apr 10
New
Apr 18
First Quarter
Apr 25
Full
May 2
Last Quarter

Hourly Weather History & Observations

Time (AKDT) Temp. Windchill Dew Point Humidity Pressure Visibility Wind Dir Wind Speed Gust Speed Precip Events Conditions
12:16 AM 33.8 °F 27.7 °F 28.4 °F 81% 30.00 in 10.0 mi East 6.9 mph - N/A   Clear
12:36 AM 33.8 °F 27.0 °F 28.4 °F 81% 30.01 in 10.0 mi East 8.1 mph - N/A   Clear
12:56 AM 33.8 °F 28.6 °F 28.4 °F 81% 30.01 in 10.0 mi East 5.8 mph - N/A   Scattered Clouds
1:16 AM 35.6 °F 29.2 °F 32.0 °F 87% 30.00 in 10.0 mi East 8.1 mph - N/A   Scattered Clouds
1:36 AM 33.8 °F 28.6 °F 28.4 °F 81% 30.01 in 10.0 mi East 5.8 mph - N/A   Partly Cloudy
1:56 AM 35.6 °F 29.9 °F 30.2 °F 81% 30.01 in 10.0 mi East 6.9 mph - N/A   Mostly Cloudy
2:16 AM 35.6 °F 29.2 °F 30.2 °F 81% 30.00 in 10.0 mi East 8.1 mph - N/A   Mostly Cloudy
2:36 AM 35.6 °F 28.6 °F 30.2 °F 81% 30.00 in 10.0 mi East 9.2 mph - N/A   Overcast
2:56 AM 35.6 °F 29.9 °F 30.2 °F 81% 30.00 in 10.0 mi East 6.9 mph - N/A   Mostly Cloudy
3:16 AM 37.4 °F 33.8 °F 33.8 °F 87% 30.00 in 10.0 mi ESE 4.6 mph - N/A   Overcast
3:36 AM 37.4 °F 32.8 °F 33.8 °F 87% 30.00 in 10.0 mi ESE 5.8 mph - N/A   Overcast
3:56 AM 39.2 °F 35.0 °F 33.8 °F 81% 30.00 in 10.0 mi East 5.8 mph - N/A   Overcast
4:16 AM 37.4 °F 32.8 °F 33.8 °F 87% 29.99 in 10.0 mi East 5.8 mph - N/A   Overcast
4:36 AM 37.4 °F 33.8 °F 33.8 °F 87% 29.98 in 10.0 mi East 4.6 mph - N/A   Overcast
4:56 AM 37.4 °F 32.1 °F 32.0 °F 81% 29.98 in 10.0 mi East 6.9 mph - N/A   Overcast
5:16 AM 37.4 °F 32.1 °F 33.8 °F 87% 29.97 in 10.0 mi East 6.9 mph - N/A   Mostly Cloudy
5:36 AM 35.6 °F 29.9 °F 30.2 °F 81% 29.97 in 10.0 mi East 6.9 mph - N/A   Mostly Cloudy
5:56 AM 35.6 °F 29.2 °F 32.0 °F 87% 29.96 in 10.0 mi East 8.1 mph - N/A   Scattered Clouds
6:16 AM 35.6 °F 29.9 °F 30.2 °F 81% 29.97 in 10.0 mi NE 6.9 mph - N/A   Mostly Cloudy
6:36 AM 35.6 °F 29.2 °F 30.2 °F 81% 29.96 in 10.0 mi East 8.1 mph - N/A   Mostly Cloudy
6:56 AM 35.6 °F 31.7 °F 32.0 °F 87% 29.96 in 10.0 mi ESE 4.6 mph - N/A   Partly Cloudy
7:16 AM 37.4 °F 32.1 °F 33.8 °F 87% 29.96 in 10.0 mi SE 6.9 mph - N/A   Mostly Cloudy
7:36 AM 39.2 °F 33.6 °F 33.8 °F 81% 29.96 in 10.0 mi ESE 8.1 mph - N/A   Overcast
7:56 AM 39.2 °F 35.0 °F 33.8 °F 81% 29.95 in 10.0 mi SSE 5.8 mph - N/A   Overcast
8:16 AM 39.2 °F - 33.8 °F 81% 29.95 in 10.0 mi Calm Calm - N/A   Overcast
8:36 AM 39.2 °F 33.6 °F 33.8 °F 81% 29.94 in 10.0 mi SE 8.1 mph - N/A   Overcast
8:56 AM 39.2 °F 33.0 °F 33.8 °F 81% 29.93 in 10.0 mi ESE 9.2 mph - N/A   Overcast
9:16 AM 39.2 °F 32.5 °F 33.8 °F 81% 29.93 in 10.0 mi SE 10.4 mph 18.4 mph N/A   Overcast
9:36 AM 41.0 °F 35.2 °F 33.8 °F 76% 29.93 in 10.0 mi SSE 9.2 mph - N/A   Overcast
9:56 AM 41.0 °F 35.2 °F 33.8 °F 76% 29.92 in 10.0 mi SE 9.2 mph - N/A   Overcast
10:16 AM 42.8 °F 37.0 °F 35.6 °F 76% 29.92 in 10.0 mi SE 10.4 mph 17.3 mph N/A   Overcast
10:36 AM 42.8 °F 37.0 °F 35.6 °F 76% 29.92 in 10.0 mi SE 10.4 mph - N/A   Overcast
10:56 AM 42.8 °F 36.6 °F 35.6 °F 76% 29.91 in 10.0 mi SE 11.5 mph 17.3 mph N/A   Overcast
11:16 AM 44.6 °F 37.4 °F 35.6 °F 71% 29.90 in 10.0 mi SE 16.1 mph 20.7 mph N/A   Overcast
11:36 AM 44.6 °F 37.8 °F 33.8 °F 66% 29.90 in 10.0 mi SE 15.0 mph 23.0 mph N/A   Overcast
11:56 AM 44.6 °F 35.9 °F 33.8 °F 66% 29.89 in 10.0 mi SSE 23.0 mph 32.2 mph N/A   Mostly Cloudy
12:16 PM 44.6 °F 37.4 °F 33.8 °F 66% 29.88 in 10.0 mi SE 16.1 mph 27.6 mph N/A   Mostly Cloudy
12:36 PM 44.6 °F 38.1 °F 35.6 °F 71% 29.87 in 10.0 mi SE 13.8 mph 29.9 mph N/A   Mostly Cloudy
12:56 PM 44.6 °F 37.4 °F 33.8 °F 66% 29.87 in 10.0 mi SSE 16.1 mph 24.2 mph N/A   Overcast
1:16 PM 44.6 °F 37.2 °F 35.6 °F 71% 29.86 in 10.0 mi SE 17.3 mph 24.2 mph N/A   Overcast
1:36 PM 44.6 °F 37.2 °F 35.6 °F 71% 29.86 in 10.0 mi SE 17.3 mph 23.0 mph N/A   Overcast
1:56 PM 44.6 °F 37.4 °F 35.6 °F 71% 29.85 in 10.0 mi SE 16.1 mph 25.3 mph N/A   Overcast
2:16 PM 44.6 °F 37.2 °F 35.6 °F 71% 29.85 in 10.0 mi SE 17.3 mph 27.6 mph N/A   Overcast
2:36 PM 44.6 °F 37.2 °F 35.6 °F 71% 29.85 in 10.0 mi SE 17.3 mph 26.5 mph N/A   Overcast
2:56 PM 42.8 °F 35.8 °F 35.6 °F 76% 29.85 in 10.0 mi SE 13.8 mph 21.9 mph N/A   Overcast
3:16 PM 42.8 °F 34.5 °F 35.6 °F 76% 29.84 in 10.0 mi SE 18.4 mph 25.3 mph 0.01 in   Overcast
3:36 PM 42.8 °F 35.1 °F 37.4 °F 81% 29.84 in 10.0 mi SE 16.1 mph 24.2 mph 0.01 in   Overcast
3:56 PM 42.8 °F 34.0 °F 35.6 °F 76% 29.83 in 10.0 mi SE 20.7 mph 28.8 mph 0.01 in   Overcast
4:16 PM 42.8 °F 34.5 °F 35.6 °F 76% 29.83 in 10.0 mi SE 18.4 mph 32.2 mph N/A   Overcast
4:36 PM 42.8 °F 34.8 °F 33.8 °F 70% 29.83 in 10.0 mi ESE 17.3 mph 35.7 mph N/A   Overcast
4:56 PM 42.8 °F 35.1 °F 35.6 °F 76% 29.82 in 10.0 mi SE 16.1 mph 27.6 mph N/A   Overcast
5:16 PM 42.8 °F 35.4 °F 33.8 °F 70% 29.81 in 10.0 mi SE 15.0 mph 34.5 mph N/A   Overcast
5:36 PM 44.6 °F 36.1 °F 33.8 °F 66% 29.81 in 10.0 mi SE 21.9 mph 27.6 mph N/A   Overcast
5:56 PM 44.6 °F 36.4 °F 33.8 °F 66% 29.80 in 10.0 mi SE 20.7 mph 29.9 mph N/A   Overcast
6:16 PM 44.6 °F 36.9 °F 33.8 °F 66% 29.80 in 10.0 mi SE 18.4 mph 26.5 mph N/A   Overcast
6:36 PM 42.8 °F 34.8 °F 33.8 °F 70% 29.80 in 10.0 mi SE 17.3 mph 26.5 mph N/A   Overcast
6:56 PM 42.8 °F 35.8 °F 33.8 °F 70% 29.78 in 10.0 mi SE 13.8 mph 24.2 mph N/A   Overcast
7:16 PM 42.8 °F 34.5 °F 33.8 °F 70% 29.78 in 10.0 mi SE 18.4 mph 32.2 mph N/A   Overcast
7:56 PM 42.8 °F 34.8 °F 35.6 °F 76% 29.77 in 10.0 mi SE 17.3 mph 26.5 mph N/A   Overcast
8:16 PM 41.0 °F 32.5 °F 35.6 °F 81% 29.77 in 10.0 mi SE 17.3 mph 25.3 mph N/A   Overcast
8:36 PM 41.0 °F 33.1 °F 35.6 °F 81% 29.76 in 10.0 mi SE 15.0 mph 27.6 mph N/A   Overcast
8:56 PM 41.0 °F 32.2 °F 35.6 °F 81% 29.76 in 10.0 mi SE 18.4 mph 24.2 mph 0.02 in   Overcast
9:16 PM 41.0 °F 32.5 °F 35.6 °F 81% 29.74 in 10.0 mi ESE 17.3 mph 26.5 mph N/A   Overcast
9:36 PM 41.0 °F 31.6 °F 35.6 °F 81% 29.72 in 10.0 mi ESE 20.7 mph - 0.01 in   Overcast
9:56 PM 41.0 °F 32.5 °F 35.6 °F 81% 29.71 in 10.0 mi SE 17.3 mph 29.9 mph 0.02 in   Overcast
10:16 PM 41.0 °F 32.5 °F 35.6 °F 81% 29.70 in 10.0 mi SE 17.3 mph 20.7 mph N/A   Overcast
10:36 PM 41.0 °F 32.8 °F 35.6 °F 81% 29.69 in 10.0 mi ESE 16.1 mph 24.2 mph 0.01 in   Overcast
10:56 PM 41.0 °F 33.5 °F 35.6 °F 81% 29.68 in 10.0 mi SE 13.8 mph 20.7 mph 0.01 in   Overcast
11:16 PM 41.0 °F 34.3 °F 35.6 °F 81% 29.66 in 10.0 mi SE 11.5 mph 25.3 mph 0.01 in   Overcast
11:36 PM 39.2 °F 30.8 °F 35.6 °F 87% 29.64 in 10.0 mi SE 15.0 mph 25.3 mph 0.03 in   Overcast
11:56 PM 39.2 °F 31.6 °F 35.6 °F 87% 29.62 in 10.0 mi ESE 12.7 mph 25.3 mph 0.05 in   Overcast